Tracking 19706 objects as of 16-Jun-2019
HD Live streaming from Space Station
objects crossing your sky now

STARLINK OBJ AH

Track STARLINK OBJ AH now!
10-day predictions


NORAD ID: 44266
Int'l Code: 2019-029AH
Perigee: 544.3 km
Apogee: 548.5 km
Inclination: 53.0 °
Period: 95.4 minutes
Semi major axis: 6917 km
RCS: Unknown
Launch date: May 24, 2019
Source: United States (US)
Launch site: AIR FORCE EASTERN TEST RANGE (AFETR)
aabbcc
Your satellite tracking list
Your tracking list is empty




NASA's NSSDC Master Catalog

Two Line Element Set (TLE):
1 44266U 19029AH  19166.26633778 -.01006582  00000-0 -67684-1 0  9994
2 44266  52.9918  72.0809 0002974 137.3336 222.7885 15.08998949  3449
Source of the keplerian elements: AFSPC